User: anonymous   Login
Location: Unspecified
(0.0000°N, 0.0000°E)
Time: 19:31:11
(UTC+00:00)
Language:

STARLINK-2443 - Orbit

View from above orbital plane
View from above orbital plane
View from above satellite
View from above satellite

Ground track
Ground track

The orbit is defined by the following mean orbital elements,

1 48107U          26145.29330992 +.00000000 +00000-0 -60556-4 0 00005
2 48107  53.1607 156.4986 0001303  86.1907 273.9243 15.31688852    08
Epoch (UTC): 25 May 2026 07:02:21
Eccentricity: 0.0001303
inclination: 53.1607°
perigee height: 470 km
apogee height: 472 km
right ascension of ascending node: 156.4986°
argument of perigee: 86.1907°
revolutions per day: 15.31688852
mean anomaly at epoch: 273.9243°

The dashed part of the orbit path shows where the satellite is in the earth's shadow,  

DLR